Time,TemperatureF,DewpointF,PressureIn,WindDirection,WindDirectionDegrees,WindSpeedMPH,WindSpeedGustMPH,Humidity,HourlyPrecipIn,Conditions,Clouds,dailyrainin,SoftwareType,DateUTC
2013-01-09 00:00:00,50.4,46.1,30.27,ESE,123,4.0,13.0,85,0.00,,SKC,0.00,VWS V13.00,2013-01-09 06:00:00,
2013-01-09 00:03:00,50.4,46.1,30.27,ESE,119,7.0,10.0,85,0.00,,SKC,0.00,VWS V13.00,2013-01-09 06:03:00,
2013-01-09 00:08:00,50.4,46.1,30.27,SE,125,8.0,12.0,85,0.00,,SKC,0.00,VWS V13.00,2013-01-09 06:08:00,
2013-01-09 00:13:00,50.3,46.0,30.27,ESE,110,4.0,12.0,85,0.00,,SKC,0.00,VWS V13.00,2013-01-09 06:13:00,
2013-01-09 00:18:00,50.2,45.9,30.27,ESE,107,6.0,12.0,85,0.00,,SKC,0.00,VWS V13.00,2013-01-09 06:18:00,
2013-01-09 00:23:00,50.2,46.2,30.27,ESE,111,5.0,12.0,86,0.00,,SKC,0.00,VWS V13.00,2013-01-09 06:23:00,
2013-01-09 00:28:00,50.1,46.1,30.27,ESE,106,6.0,12.0,86,0.00,,SKC,0.00,VWS V13.00,2013-01-09 06:28:00,
2013-01-09 00:30:00,50.1,46.1,30.27,East,98,5.0,12.0,86,0.00,,SKC,0.00,VWS V13.00,2013-01-09 06:30:00,
2013-01-09 00:33:00,50.1,46.1,30.27,East,97,6.0,9.0,86,0.00,,SKC,0.00,VWS V13.00,2013-01-09 06:33:00,
2013-01-09 00:38:00,50.1,46.1,30.27,ESE,105,3.0,12.0,86,0.00,,SKC,0.00,VWS V13.00,2013-01-09 06:38:00,
2013-01-09 00:43:00,50.1,46.1,30.28,East,88,5.0,12.0,86,0.00,,SKC,0.00,VWS V13.00,2013-01-09 06:43:00,
2013-01-09 00:48:00,50.1,46.1,30.28,ESE,107,4.0,12.0,86,0.00,,SKC,0.00,VWS V13.00,2013-01-09 06:48:00,
2013-01-09 00:53:00,50.1,45.8,30.28,ESE,122,5.0,12.0,85,0.00,,SKC,0.00,VWS V13.00,2013-01-09 06:53:00,
2013-01-09 00:58:00,50.1,45.8,30.28,ESE,123,5.0,12.0,85,0.00,,SKC,0.00,VWS V13.00,2013-01-09 06:58:00,
2013-01-09 01:00:00,50.1,45.8,30.28,ESE,109,4.0,12.0,85,0.00,,SKC,0.00,VWS V13.00,2013-01-09 07:00:00,
2013-01-09 01:03:00,50.1,45.8,30.28,ESE,121,6.0,7.0,85,0.00,,SKC,0.00,VWS V13.00,2013-01-09 07:03:00,
2013-01-09 01:08:00,50.0,45.7,30.27,East,86,6.0,11.0,85,0.00,,SKC,0.00,VWS V13.00,2013-01-09 07:08:00,
2013-01-09 01:13:00,49.9,45.6,30.27,ESE,112,6.0,13.0,85,0.00,,SKC,0.00,VWS V13.00,2013-01-09 07:13:00,
2013-01-09 01:18:00,49.9,45.6,30.28,SE,132,6.0,13.0,85,0.00,,SKC,0.00,VWS V13.00,2013-01-09 07:18:00,
2013-01-09 01:23:00,50.0,45.7,30.28,SE,134,7.0,13.0,85,0.00,,SKC,0.00,VWS V13.00,2013-01-09 07:23:00,
2013-01-09 01:28:00,50.0,45.7,30.28,SE,130,7.0,13.0,85,0.00,,SKC,0.00,VWS V13.00,2013-01-09 07:28:00,
2013-01-09 01:30:00,50.0,45.4,30.28,East,98,4.0,13.0,84,0.00,,SKC,0.00,VWS V13.00,2013-01-09 07:30:00,
2013-01-09 01:33:00,50.0,45.4,30.28,SE,144,6.0,7.0,84,0.00,,SKC,0.00,VWS V13.00,2013-01-09 07:33:00,
2013-01-09 01:38:00,50.0,45.4,30.28,ESE,103,7.0,11.0,84,0.00,,SKC,0.00,VWS V13.00,2013-01-09 07:38:00,
2013-01-09 01:43:00,50.0,45.4,30.28,ESE,114,5.0,11.0,84,0.00,,SKC,0.00,VWS V13.00,2013-01-09 07:43:00,
2013-01-09 01:48:00,49.9,45.3,30.29,SE,146,9.0,13.0,84,0.00,,SKC,0.00,VWS V13.00,2013-01-09 07:48:00,
2013-01-09 01:53:00,49.9,45.3,30.29,ESE,119,3.0,14.0,84,0.00,,SKC,0.00,VWS V13.00,2013-01-09 07:53:00,
2013-01-09 01:58:00,50.0,45.4,30.28,ESE,111,8.0,14.0,84,0.00,,SKC,0.00,VWS V13.00,2013-01-09 07:58:00,
2013-01-09 02:00:00,50.0,45.4,30.29,SSE,150,7.0,14.0,84,0.00,,SKC,0.00,VWS V13.00,2013-01-09 08:00:00,
2013-01-09 02:03:00,50.0,45.4,30.28,ESE,120,8.0,8.0,84,0.00,,SKC,0.00,VWS V13.00,2013-01-09 08:03:00,
2013-01-09 02:08:00,50.1,45.5,30.29,East,85,6.0,14.0,84,0.00,,SKC,0.00,VWS V13.00,2013-01-09 08:08:00,
2013-01-09 02:13:00,50.1,45.5,30.29,SE,127,2.0,14.0,84,0.00,,SKC,0.00,VWS V13.00,2013-01-09 08:13:00,
2013-01-09 02:18:00,50.1,45.2,30.29,SE,124,2.0,14.0,83,0.00,,SKC,0.00,VWS V13.00,2013-01-09 08:18:00,
2013-01-09 02:23:00,50.1,45.2,30.29,East,95,7.0,14.0,83,0.00,,SKC,0.00,VWS V13.00,2013-01-09 08:23:00,
2013-01-09 02:28:00,50.1,45.2,30.29,ESE,107,9.0,14.0,83,0.00,,SKC,0.00,VWS V13.00,2013-01-09 08:28:00,
2013-01-09 02:30:00,50.2,45.2,30.28,East,84,7.0,14.0,83,0.00,,SKC,0.00,VWS V13.00,2013-01-09 08:30:00,
2013-01-09 02:32:00,50.1,45.2,30.28,East,90,7.0,7.0,83,0.00,,SKC,0.00,VWS V13.00,2013-01-09 08:32:00,
2013-01-09 02:37:00,50.1,45.2,30.28,East,101,5.0,9.0,83,0.00,,SKC,0.00,VWS V13.00,2013-01-09 08:37:00,
2013-01-09 02:42:00,50.2,44.9,30.28,ESE,105,5.0,11.0,82,0.00,,SKC,0.00,VWS V13.00,2013-01-09 08:42:00,
2013-01-09 02:47:00,50.2,44.9,30.28,ESE,113,2.0,11.0,82,0.00,,SKC,0.00,VWS V13.00,2013-01-09 08:47:00,
2013-01-09 02:52:00,50.2,44.9,30.28,East,99,5.0,11.0,82,0.00,,SKC,0.00,VWS V13.00,2013-01-09 08:52:00,
2013-01-09 02:57:00,50.3,45.0,30.28,ESE,109,2.0,11.0,82,0.00,,SKC,0.00,VWS V13.00,2013-01-09 08:57:00,
2013-01-09 03:00:00,50.3,45.0,30.28,East,94,5.0,11.0,82,0.00,,SKC,0.00,VWS V13.00,2013-01-09 09:00:00,
2013-01-09 03:03:00,50.3,45.0,30.29,ESE,111,6.0,7.0,82,0.00,,SKC,0.00,VWS V13.00,2013-01-09 09:03:00,
2013-01-09 03:08:00,50.3,45.0,30.29,ESE,117,7.0,10.0,82,0.00,,SKC,0.00,VWS V13.00,2013-01-09 09:08:00,
2013-01-09 03:13:00,50.4,45.1,30.29,SE,124,7.0,10.0,82,0.00,,SKC,0.00,VWS V13.00,2013-01-09 09:13:00,
2013-01-09 03:18:00,50.5,45.2,30.29,SE,138,5.0,10.0,82,0.00,,SKC,0.00,VWS V13.00,2013-01-09 09:18:00,
2013-01-09 03:23:00,50.5,45.2,30.29,ESE,115,2.0,10.0,82,0.00,,SKC,0.00,VWS V13.00,2013-01-09 09:23:00,
2013-01-09 03:28:00,50.5,45.2,30.29,ESE,119,5.0,10.0,82,0.00,,SKC,0.00,VWS V13.00,2013-01-09 09:28:00,
2013-01-09 03:30:00,50.5,45.2,30.29,ESE,106,5.0,10.0,82,0.00,,SKC,0.00,VWS V13.00,2013-01-09 09:30:00,
2013-01-09 03:33:00,50.5,45.2,30.29,East,92,3.0,6.0,82,0.00,,SKC,0.00,VWS V13.00,2013-01-09 09:33:00,
2013-01-09 03:38:00,50.5,45.2,30.29,ESE,114,3.0,7.0,82,0.00,,SKC,0.00,VWS V13.00,2013-01-09 09:38:00,
2013-01-09 03:43:00,50.5,45.2,30.29,ESE,113,4.0,8.0,82,0.00,,SKC,0.00,VWS V13.00,2013-01-09 09:43:00,
2013-01-09 03:48:00,50.5,45.2,30.29,East,90,5.0,9.0,82,0.00,,SKC,0.00,VWS V13.00,2013-01-09 09:48:00,
2013-01-09 03:53:00,50.6,45.3,30.29,ESE,111,6.0,9.0,82,0.00,,SKC,0.00,VWS V13.00,2013-01-09 09:53:00,
2013-01-09 03:58:00,50.6,45.3,30.29,ESE,103,3.0,9.0,82,0.00,,SKC,0.00,VWS V13.00,2013-01-09 09:58:00,
2013-01-09 04:00:00,50.6,45.3,30.29,SE,131,1.0,9.0,82,0.00,,SKC,0.00,VWS V13.00,2013-01-09 10:00:00,
2013-01-09 04:03:00,50.6,45.3,30.30,East,95,4.0,5.0,82,0.00,,SKC,0.00,VWS V13.00,2013-01-09 10:03:00,
2013-01-09 04:08:00,50.7,45.4,30.30,ESE,113,3.0,8.0,82,0.00,,SKC,0.00,VWS V13.00,2013-01-09 10:08:00,
2013-01-09 04:13:00,50.8,45.5,30.30,SSE,148,5.0,9.0,82,0.00,,SKC,0.00,VWS V13.00,2013-01-09 10:13:00,
2013-01-09 04:18:00,50.8,45.5,30.30,South,171,3.0,9.0,82,0.00,,SKC,0.00,VWS V13.00,2013-01-09 10:18:00,
2013-01-09 04:23:00,50.8,45.8,30.30,ESE,105,5.0,9.0,83,0.00,,SKC,0.00,VWS V13.00,2013-01-09 10:23:00,
2013-01-09 04:28:00,50.9,45.9,30.30,SE,134,3.0,9.0,83,0.00,,SKC,0.00,VWS V13.00,2013-01-09 10:28:00,
2013-01-09 04:30:00,51.0,46.0,30.31,SSE,150,2.0,9.0,83,0.00,,SKC,0.00,VWS V13.00,2013-01-09 10:30:00,
2013-01-09 04:33:00,51.0,46.0,30.31,ESE,119,1.0,2.0,83,0.00,,SKC,0.00,VWS V13.00,2013-01-09 10:33:00,
2013-01-09 04:38:00,51.0,46.0,30.31,SSE,163,4.0,6.0,83,0.00,,SKC,0.00,VWS V13.00,2013-01-09 10:38:00,
2013-01-09 04:43:00,51.1,46.4,30.31,East,101,2.0,6.0,84,0.00,,SKC,0.00,VWS V13.00,2013-01-09 10:43:00,
2013-01-09 04:48:00,51.2,46.5,30.31,ESE,121,2.0,6.0,84,0.00,,SKC,0.00,VWS V13.00,2013-01-09 10:48:00,
2013-01-09 04:52:00,51.2,46.8,30.31,SE,138,1.0,6.0,85,0.00,,SKC,0.00,VWS V13.00,2013-01-09 10:52:00,
2013-01-09 04:57:00,51.0,47.0,30.31,ESE,122,2.0,6.0,86,0.00,,SKC,0.00,VWS V13.00,2013-01-09 10:57:00,
2013-01-09 05:00:00,50.9,46.9,30.31,ESE,109,5.0,7.0,86,0.00,,SKC,0.00,VWS V13.00,2013-01-09 11:00:00,
2013-01-09 05:02:00,50.9,46.9,30.31,ESE,113,2.0,5.0,86,0.00,,SKC,0.00,VWS V13.00,2013-01-09 11:02:00,
2013-01-09 05:07:00,50.7,47.3,30.31,East,97,2.0,6.0,88,0.00,,SKC,0.00,VWS V13.00,2013-01-09 11:07:00,
2013-01-09 05:12:00,50.5,47.4,30.31,ESE,115,2.0,6.0,89,0.01,,SKC,0.01,VWS V13.00,2013-01-09 11:12:00,
2013-01-09 05:17:00,50.3,47.2,30.31,ESE,123,2.0,7.0,89,0.02,,SKC,0.02,VWS V13.00,2013-01-09 11:17:00,
2013-01-09 05:22:00,50.1,47.3,30.31,ESE,109,2.0,7.0,90,0.02,,SKC,0.02,VWS V13.00,2013-01-09 11:22:00,
2013-01-09 05:27:00,49.9,47.4,30.31,ESE,105,5.0,7.0,91,0.02,,SKC,0.02,VWS V13.00,2013-01-09 11:27:00,
2013-01-09 05:30:00,49.7,47.2,30.31,ESE,114,5.0,7.0,91,0.02,,SKC,0.02,VWS V13.00,2013-01-09 11:30:00,
2013-01-09 05:32:00,49.7,47.5,30.30,ESE,104,5.0,5.0,92,0.02,,SKC,0.02,VWS V13.00,2013-01-09 11:32:00,
2013-01-09 05:37:00,49.6,47.4,30.30,East,97,7.0,7.0,92,0.03,,SKC,0.03,VWS V13.00,2013-01-09 11:37:00,
2013-01-09 05:42:00,49.5,47.3,30.30,East,98,4.0,8.0,92,0.03,,SKC,0.03,VWS V13.00,2013-01-09 11:42:00,
2013-01-09 05:47:00,49.4,47.5,30.29,East,82,4.0,9.0,93,0.03,,SKC,0.03,VWS V13.00,2013-01-09 11:47:00,
2013-01-09 05:52:00,49.3,47.4,30.29,East,84,3.0,9.0,93,0.03,,SKC,0.03,VWS V13.00,2013-01-09 11:52:00,
2013-01-09 05:57:00,49.4,47.8,30.30,ESE,119,4.0,9.0,94,0.03,,SKC,0.03,VWS V13.00,2013-01-09 11:57:00,
2013-01-09 06:00:00,49.5,47.8,30.30,ESE,112,4.0,9.0,94,0.03,,SKC,0.03,VWS V13.00,2013-01-09 12:00:00,
2013-01-09 06:02:00,49.5,47.8,30.30,ESE,118,1.0,4.0,94,0.03,,SKC,0.03,VWS V13.00,2013-01-09 12:02:00,
2013-01-09 06:07:00,49.5,47.8,30.31,SE,134,1.0,5.0,94,0.04,,SKC,0.04,VWS V13.00,2013-01-09 12:07:00,
2013-01-09 06:12:00,49.6,48.0,30.31,SSE,157,5.0,7.0,94,0.04,,SKC,0.04,VWS V13.00,2013-01-09 12:12:00,
2013-01-09 06:17:00,49.7,48.0,30.31,SE,145,2.0,8.0,94,0.04,,SKC,0.04,VWS V13.00,2013-01-09 12:17:00,
2013-01-09 06:22:00,49.7,48.0,30.32,SSE,162,1.0,9.0,94,0.04,,SKC,0.04,VWS V13.00,2013-01-09 12:22:00,
2013-01-09 06:27:00,49.7,48.0,30.31,SE,124,5.0,9.0,94,0.04,,SKC,0.04,VWS V13.00,2013-01-09 12:27:00,
2013-01-09 06:30:00,49.7,48.0,30.31,East,94,5.0,9.0,94,0.05,,SKC,0.05,VWS V13.00,2013-01-09 12:30:00,
2013-01-09 06:32:00,49.7,48.3,30.31,SSE,150,4.0,5.0,95,0.05,,SKC,0.05,VWS V13.00,2013-01-09 12:32:00,
2013-01-09 06:37:00,49.8,48.4,30.31,ESE,117,6.0,7.0,95,0.03,,SKC,0.05,VWS V13.00,2013-01-09 12:37:00,
2013-01-09 06:42:00,49.8,48.4,30.32,ESE,111,2.0,7.0,95,0.03,,SKC,0.05,VWS V13.00,2013-01-09 12:42:00,
2013-01-09 06:47:00,49.8,48.4,30.32,SE,141,0.0,7.0,95,0.04,,SKC,0.06,VWS V13.00,2013-01-09 12:47:00,
2013-01-09 06:52:00,49.8,48.4,30.33,South,171,1.0,7.0,95,0.04,,SKC,0.06,VWS V13.00,2013-01-09 12:52:00,
2013-01-09 06:57:00,49.9,48.5,30.34,SE,132,2.0,7.0,95,0.04,,SKC,0.06,VWS V13.00,2013-01-09 12:57:00,
2013-01-09 07:00:00,49.9,48.5,30.34,ESE,117,2.0,7.0,95,0.04,,SKC,0.06,VWS V13.00,2013-01-09 13:00:00,
2013-01-09 07:02:00,49.9,48.5,30.34,ESE,111,4.0,5.0,95,0.04,,SKC,0.06,VWS V13.00,2013-01-09 13:02:00,
2013-01-09 07:07:00,49.9,48.5,30.34,ESE,107,2.0,7.0,95,0.03,,SKC,0.06,VWS V13.00,2013-01-09 13:07:00,
2013-01-09 07:12:00,49.9,48.5,30.35,SE,133,4.0,7.0,95,0.03,,SKC,0.06,VWS V13.00,2013-01-09 13:12:00,
2013-01-09 07:17:00,49.9,48.5,30.35,SE,133,1.0,7.0,95,0.04,,SKC,0.07,VWS V13.00,2013-01-09 13:17:00,
2013-01-09 07:22:00,49.9,48.5,30.35,ESE,111,5.0,8.0,95,0.04,,SKC,0.07,VWS V13.00,2013-01-09 13:22:00,
2013-01-09 07:27:00,49.9,48.5,30.35,SSE,149,5.0,8.0,95,0.04,,SKC,0.07,VWS V13.00,2013-01-09 13:27:00,
2013-01-09 07:30:00,49.9,48.5,30.35,ESE,121,1.0,8.0,95,0.04,,SKC,0.07,VWS V13.00,2013-01-09 13:30:00,
2013-01-09 07:32:00,49.9,48.5,30.35,ESE,121,1.0,1.0,95,0.04,,SKC,0.07,VWS V13.00,2013-01-09 13:32:00,
2013-01-09 07:37:00,49.9,48.5,30.35,ESE,104,5.0,7.0,95,0.03,,SKC,0.08,VWS V13.00,2013-01-09 13:37:00,
2013-01-09 07:42:00,50.0,48.6,30.35,East,93,4.0,7.0,95,0.03,,SKC,0.08,VWS V13.00,2013-01-09 13:42:00,
2013-01-09 07:47:00,50.0,48.6,30.36,ESE,107,4.0,7.0,95,0.03,,SKC,0.08,VWS V13.00,2013-01-09 13:47:00,
2013-01-09 07:52:00,50.0,48.6,30.36,ESE,121,2.0,7.0,95,0.03,,SKC,0.08,VWS V13.00,2013-01-09 13:52:00,
2013-01-09 07:57:00,50.0,48.6,30.36,East,91,6.0,9.0,95,0.03,,SKC,0.08,VWS V13.00,2013-01-09 13:57:00,
2013-01-09 08:00:00,50.1,48.7,30.36,East,92,8.0,9.0,95,0.03,,SKC,0.08,VWS V13.00,2013-01-09 14:00:00,
2013-01-09 08:02:00,50.1,48.7,30.36,East,89,7.0,7.0,95,0.03,,SKC,0.08,VWS V13.00,2013-01-09 14:02:00,
2013-01-09 08:07:00,50.1,48.7,30.36,SE,140,4.0,8.0,95,0.02,,SKC,0.08,VWS V13.00,2013-01-09 14:07:00,
2013-01-09 08:12:00,50.2,48.8,30.36,East,94,5.0,8.0,95,0.02,,SKC,0.08,VWS V13.00,2013-01-09 14:12:00,
2013-01-09 08:17:00,50.2,49.1,30.34,East,101,6.0,12.0,96,0.03,,SKC,0.09,VWS V13.00,2013-01-09 14:17:00,
2013-01-09 08:22:00,50.1,49.0,30.37,SE,140,3.0,12.0,96,0.03,,SKC,0.09,VWS V13.00,2013-01-09 14:22:00,
2013-01-09 08:27:00,50.2,48.8,30.37,SE,126,3.0,12.0,95,0.03,,SKC,0.09,VWS V13.00,2013-01-09 14:27:00,
2013-01-09 08:30:00,50.2,49.1,30.38,SE,127,1.0,12.0,96,0.03,,SKC,0.09,VWS V13.00,2013-01-09 14:30:00,
2013-01-09 08:32:00,50.2,49.1,30.38,SE,127,1.0,1.0,96,0.03,,SKC,0.09,VWS V13.00,2013-01-09 14:32:00,
2013-01-09 08:37:00,50.2,48.8,30.38,East,99,5.0,6.0,95,0.02,,SKC,0.09,VWS V13.00,2013-01-09 14:37:00,
2013-01-09 08:42:00,50.3,48.9,30.38,SE,136,2.0,7.0,95,0.02,,SKC,0.09,VWS V13.00,2013-01-09 14:42:00,
2013-01-09 08:47:00,50.3,48.9,30.38,SSE,160,6.0,7.0,95,0.02,,SKC,0.09,VWS V13.00,2013-01-09 14:47:00,
2013-01-09 08:52:00,50.4,49.0,30.37,East,88,5.0,8.0,95,0.02,,SKC,0.09,VWS V13.00,2013-01-09 14:52:00,
2013-01-09 08:57:00,50.4,49.0,30.37,ESE,114,6.0,8.0,95,0.02,,SKC,0.09,VWS V13.00,2013-01-09 14:57:00,
2013-01-09 09:00:00,50.5,49.1,30.38,East,89,4.0,8.0,95,0.02,,SKC,0.09,VWS V13.00,2013-01-09 15:00:00,
2013-01-09 09:02:00,50.5,49.1,30.38,ESE,109,4.0,4.0,95,0.02,,SKC,0.09,VWS V13.00,2013-01-09 15:02:00,
2013-01-09 09:07:00,50.6,49.2,30.38,East,94,4.0,8.0,95,0.02,,SKC,0.10,VWS V13.00,2013-01-09 15:07:00,
2013-01-09 09:12:00,50.8,49.4,30.38,ENE,71,2.0,8.0,95,0.02,,SKC,0.10,VWS V13.00,2013-01-09 15:12:00,
2013-01-09 09:17:00,50.9,49.5,30.38,ENE,74,2.0,8.0,95,0.02,,SKC,0.10,VWS V13.00,2013-01-09 15:17:00,
2013-01-09 09:22:00,51.0,49.9,30.38,ESE,103,3.0,8.0,96,0.02,,SKC,0.10,VWS V13.00,2013-01-09 15:22:00,
2013-01-09 09:27:00,51.1,50.0,30.38,East,93,6.0,8.0,96,0.02,,SKC,0.10,VWS V13.00,2013-01-09 15:27:00,
2013-01-09 09:30:00,51.2,49.8,30.38,East,92,5.0,8.0,95,0.02,,SKC,0.10,VWS V13.00,2013-01-09 15:30:00,
2013-01-09 09:32:00,51.2,49.8,30.38,East,92,5.0,8.0,95,0.02,,SKC,0.10,VWS V13.00,2013-01-09 15:32:00,
2013-01-09 09:37:00,51.3,49.9,30.38,East,94,7.0,9.0,95,0.01,,SKC,0.10,VWS V13.00,2013-01-09 15:37:00,
2013-01-09 09:42:00,51.4,50.3,30.38,ESE,107,5.0,9.0,96,0.01,,SKC,0.10,VWS V13.00,2013-01-09 15:42:00,
2013-01-09 09:47:00,51.5,50.4,30.38,East,98,4.0,9.0,96,0.01,,SKC,0.10,VWS V13.00,2013-01-09 15:47:00,
2013-01-09 09:52:00,51.6,50.5,30.38,East,96,5.0,9.0,96,0.01,,SKC,0.10,VWS V13.00,2013-01-09 15:52:00,
2013-01-09 09:57:00,51.6,50.2,30.37,East,93,7.0,9.0,95,0.01,,SKC,0.10,VWS V13.00,2013-01-09 15:57:00,
2013-01-09 10:00:00,51.7,50.3,30.37,ESE,115,6.0,9.0,95,0.01,,SKC,0.10,VWS V13.00,2013-01-09 16:00:00,
2013-01-09 10:02:00,51.7,50.3,30.37,SE,131,8.0,9.0,95,0.01,,SKC,0.10,VWS V13.00,2013-01-09 16:02:00,
2013-01-09 10:07:00,51.9,50.5,30.37,East,94,7.0,8.0,95,0.01,,SKC,0.10,VWS V13.00,2013-01-09 16:07:00,
2013-01-09 10:12:00,52.2,51.1,30.37,SE,124,4.0,9.0,96,0.01,,SKC,0.10,VWS V13.00,2013-01-09 16:12:00,
2013-01-09 10:17:00,52.4,51.0,30.37,East,84,5.0,10.0,95,0.01,,SKC,0.10,VWS V13.00,2013-01-09 16:17:00,
2013-01-09 10:22:00,52.6,51.2,30.37,ESE,115,4.0,10.0,95,0.01,,SKC,0.10,VWS V13.00,2013-01-09 16:22:00,
2013-01-09 10:27:00,52.8,51.4,30.37,SE,145,5.0,10.0,95,0.01,,SKC,0.10,VWS V13.00,2013-01-09 16:27:00,
2013-01-09 10:30:00,52.9,51.5,30.36,ESE,118,5.0,10.0,95,0.01,,SKC,0.10,VWS V13.00,2013-01-09 16:30:00,
2013-01-09 10:32:00,52.9,51.5,30.36,ESE,108,6.0,10.0,95,0.01,,SKC,0.10,VWS V13.00,2013-01-09 16:32:00,
2013-01-09 10:37:00,53.0,51.6,30.36,ESE,121,6.0,7.0,95,0.00,,SKC,0.10,VWS V13.00,2013-01-09 16:37:00,
2013-01-09 10:42:00,53.0,51.6,30.35,East,100,8.0,8.0,95,0.00,,SKC,0.10,VWS V13.00,2013-01-09 16:42:00,
2013-01-09 10:47:00,53.1,51.7,30.35,East,86,4.0,8.0,95,0.00,,SKC,0.10,VWS V13.00,2013-01-09 16:47:00,
2013-01-09 10:52:00,53.3,51.9,30.34,ENE,70,6.0,8.0,95,0.00,,SKC,0.10,VWS V13.00,2013-01-09 16:52:00,
2013-01-09 10:57:00,53.5,52.1,30.34,East,82,7.0,8.0,95,0.00,,SKC,0.10,VWS V13.00,2013-01-09 16:57:00,
2013-01-09 11:00:00,53.8,52.4,30.34,ESE,119,6.0,9.0,95,0.00,,SKC,0.10,VWS V13.00,2013-01-09 17:00:00,
2013-01-09 11:02:00,53.7,52.3,30.34,East,94,7.0,9.0,95,0.00,,SKC,0.10,VWS V13.00,2013-01-09 17:02:00,
2013-01-09 11:07:00,54.1,52.7,30.34,ESE,104,7.0,9.0,95,0.00,,SKC,0.10,VWS V13.00,2013-01-09 17:07:00,
2013-01-09 11:12:00,54.2,52.5,30.34,East,97,6.0,10.0,94,0.00,,SKC,0.10,VWS V13.00,2013-01-09 17:12:00,
2013-01-09 11:17:00,54.3,52.6,30.33,East,94,6.0,10.0,94,0.00,,SKC,0.10,VWS V13.00,2013-01-09 17:17:00,
2013-01-09 11:22:00,54.4,52.4,30.33,ESE,103,6.0,10.0,93,0.00,,SKC,0.10,VWS V13.00,2013-01-09 17:22:00,
2013-01-09 11:27:00,54.4,52.4,30.33,ESE,103,4.0,10.0,93,0.00,,SKC,0.10,VWS V13.00,2013-01-09 17:27:00,
2013-01-09 11:30:00,54.5,52.5,30.33,East,97,7.0,10.0,93,0.00,,SKC,0.10,VWS V13.00,2013-01-09 17:30:00,
2013-01-09 11:32:00,54.5,52.5,30.33,East,101,5.0,10.0,93,0.00,,SKC,0.10,VWS V13.00,2013-01-09 17:32:00,
2013-01-09 11:37:00,54.6,52.6,30.33,SSE,165,5.0,7.0,93,0.00,,SKC,0.10,VWS V13.00,2013-01-09 17:37:00,
2013-01-09 11:42:00,54.7,52.7,30.33,SE,142,0.0,9.0,93,0.00,,SKC,0.10,VWS V13.00,2013-01-09 17:42:00,
2013-01-09 11:47:00,54.9,53.2,30.33,ESE,119,1.0,9.0,94,0.00,,SKC,0.10,VWS V13.00,2013-01-09 17:47:00,
2013-01-09 11:52:00,54.9,52.9,30.32,ENE,78,4.0,9.0,93,0.00,,SKC,0.10,VWS V13.00,2013-01-09 17:52:00,
2013-01-09 11:57:00,55.0,53.0,30.32,East,99,5.0,9.0,93,0.00,,SKC,0.10,VWS V13.00,2013-01-09 17:57:00,
2013-01-09 12:00:00,55.0,53.0,30.32,ESE,106,3.0,9.0,93,0.00,,SKC,0.10,VWS V13.00,2013-01-09 18:00:00,
2013-01-09 12:02:00,55.0,53.0,30.32,East,94,4.0,9.0,93,0.00,,SKC,0.10,VWS V13.00,2013-01-09 18:02:00,
2013-01-09 12:07:00,55.2,53.5,30.32,SE,139,6.0,6.0,94,0.00,,SKC,0.10,VWS V13.00,2013-01-09 18:07:00,
2013-01-09 12:12:00,55.3,53.3,30.32,South,171,5.0,7.0,93,0.00,,SKC,0.10,VWS V13.00,2013-01-09 18:12:00,
2013-01-09 12:17:00,55.4,53.1,30.32,East,84,4.0,7.0,92,0.00,,SKC,0.10,VWS V13.00,2013-01-09 18:17:00,
2013-01-09 12:22:00,55.5,53.5,30.32,East,90,4.0,7.0,93,0.00,,SKC,0.10,VWS V13.00,2013-01-09 18:22:00,
2013-01-09 12:27:00,55.6,53.6,30.31,SE,128,7.0,8.0,93,0.00,,SKC,0.10,VWS V13.00,2013-01-09 18:27:00,
2013-01-09 12:30:00,55.7,53.4,30.32,SE,132,2.0,8.0,92,0.00,,SKC,0.10,VWS V13.00,2013-01-09 18:30:00,
2013-01-09 12:32:00,55.7,53.4,30.32,SE,140,4.0,8.0,92,0.00,,SKC,0.10,VWS V13.00,2013-01-09 18:32:00,
2013-01-09 12:37:00,55.7,53.7,30.31,East,97,5.0,6.0,93,0.00,,SKC,0.10,VWS V13.00,2013-01-09 18:37:00,
2013-01-09 12:41:00,55.8,53.5,30.31,East,90,6.0,7.0,92,0.00,,SKC,0.10,VWS V13.00,2013-01-09 18:41:00,
2013-01-09 12:42:00,55.8,53.5,30.31,East,101,5.0,8.0,92,0.00,,SKC,0.10,VWS V13.00,2013-01-09 18:42:00,
2013-01-09 12:44:00,55.8,53.5,30.31,SE,130,4.0,8.0,92,0.00,,SKC,0.10,VWS V13.00,2013-01-09 18:44:00,
2013-01-09 12:45:00,55.9,53.6,30.31,East,87,4.0,8.0,92,0.00,,SKC,0.10,VWS V13.00,2013-01-09 18:45:00,
2013-01-09 12:48:00,55.9,53.6,30.30,East,97,4.0,8.0,92,0.00,,SKC,0.10,VWS V13.00,2013-01-09 18:48:00,
2013-01-09 12:53:00,56.1,53.8,30.31,ESE,111,5.0,8.0,92,0.00,,SKC,0.10,VWS V13.00,2013-01-09 18:53:00,
2013-01-09 12:58:00,56.2,53.9,30.31,East,86,3.0,8.0,92,0.00,,SKC,0.10,VWS V13.00,2013-01-09 18:58:00,
2013-01-09 13:00:00,56.3,54.0,30.31,ESE,114,4.0,8.0,92,0.00,,SKC,0.10,VWS V13.00,2013-01-09 19:00:00,
2013-01-09 13:03:00,56.3,54.0,30.31,ESE,121,1.0,4.0,92,0.00,,SKC,0.10,VWS V13.00,2013-01-09 19:03:00,
2013-01-09 13:08:00,56.4,53.8,30.31,East,97,1.0,9.0,91,0.00,,SKC,0.10,VWS V13.00,2013-01-09 19:08:00,
2013-01-09 13:13:00,56.5,53.9,30.31,ESE,112,4.0,9.0,91,0.00,,SKC,0.10,VWS V13.00,2013-01-09 19:13:00,
2013-01-09 13:18:00,56.5,53.9,30.31,ESE,108,2.0,9.0,91,0.00,,SKC,0.10,VWS V13.00,2013-01-09 19:18:00,
2013-01-09 13:23:00,56.6,54.0,30.31,ESE,104,4.0,9.0,91,0.00,,SKC,0.10,VWS V13.00,2013-01-09 19:23:00,
2013-01-09 13:28:00,56.6,54.3,30.30,ESE,109,4.0,9.0,92,0.00,,SKC,0.10,VWS V13.00,2013-01-09 19:28:00,
2013-01-09 13:30:00,56.7,54.4,30.30,East,94,5.0,9.0,92,0.00,,SKC,0.10,VWS V13.00,2013-01-09 19:30:00,
2013-01-09 13:33:00,56.7,54.1,30.30,ESE,102,4.0,6.0,91,0.00,,SKC,0.10,VWS V13.00,2013-01-09 19:33:00,
2013-01-09 13:38:00,56.7,54.4,30.30,ESE,114,6.0,7.0,92,0.00,,SKC,0.10,VWS V13.00,2013-01-09 19:38:00,
2013-01-09 13:43:00,56.6,54.3,30.30,ESE,104,5.0,7.0,92,0.00,,SKC,0.10,VWS V13.00,2013-01-09 19:43:00,
2013-01-09 13:48:00,56.6,54.6,30.30,East,98,1.0,7.0,93,0.01,,SKC,0.11,VWS V13.00,2013-01-09 19:48:00,
2013-01-09 13:53:00,56.5,54.2,30.30,East,92,3.0,7.0,92,0.01,,SKC,0.11,VWS V13.00,2013-01-09 19:53:00,
2013-01-09 13:58:00,56.4,54.1,30.31,East,92,5.0,7.0,92,0.01,,SKC,0.11,VWS V13.00,2013-01-09 19:58:00,
2013-01-09 14:00:00,56.2,53.9,30.30,ESE,105,5.0,7.0,92,0.01,,SKC,0.11,VWS V13.00,2013-01-09 20:00:00,
2013-01-09 14:03:00,56.2,53.9,30.30,East,89,4.0,6.0,92,0.01,,SKC,0.11,VWS V13.00,2013-01-09 20:03:00,
2013-01-09 14:08:00,56.2,54.2,30.30,East,97,2.0,6.0,93,0.01,,SKC,0.11,VWS V13.00,2013-01-09 20:08:00,
2013-01-09 14:13:00,56.2,54.2,30.31,East,87,4.0,7.0,93,0.01,,SKC,0.11,VWS V13.00,2013-01-09 20:13:00,
2013-01-09 14:18:00,56.2,54.2,30.31,East,86,2.0,7.0,93,0.01,,SKC,0.11,VWS V13.00,2013-01-09 20:18:00,
2013-01-09 14:23:00,56.2,54.2,30.31,East,96,2.0,7.0,93,0.01,,SKC,0.11,VWS V13.00,2013-01-09 20:23:00,
2013-01-09 14:28:00,56.2,54.5,30.31,East,92,5.0,7.0,94,0.01,,SKC,0.11,VWS V13.00,2013-01-09 20:28:00,
2013-01-09 14:30:00,56.2,54.5,30.31,East,88,3.0,7.0,94,0.01,,SKC,0.11,VWS V13.00,2013-01-09 20:30:00,
2013-01-09 14:33:00,56.2,54.5,30.31,East,101,3.0,4.0,94,0.01,,SKC,0.11,VWS V13.00,2013-01-09 20:33:00,
2013-01-09 14:38:00,56.2,54.5,30.31,East,85,5.0,6.0,94,0.01,,SKC,0.11,VWS V13.00,2013-01-09 20:38:00,
2013-01-09 14:43:00,56.1,54.4,30.31,East,94,4.0,6.0,94,0.01,,SKC,0.11,VWS V13.00,2013-01-09 20:43:00,
2013-01-09 14:48:00,56.1,54.4,30.31,East,88,4.0,7.0,94,0.02,,SKC,0.12,VWS V13.00,2013-01-09 20:48:00,
2013-01-09 14:53:00,56.1,54.4,30.31,East,97,5.0,7.0,94,0.02,,SKC,0.12,VWS V13.00,2013-01-09 20:53:00,
2013-01-09 14:58:00,56.0,54.3,30.31,East,86,4.0,7.0,94,0.02,,SKC,0.12,VWS V13.00,2013-01-09 20:58:00,
2013-01-09 15:00:00,56.0,54.3,30.31,East,82,3.0,7.0,94,0.02,,SKC,0.12,VWS V13.00,2013-01-09 21:00:00,
2013-01-09 15:03:00,56.0,54.3,30.31,East,98,3.0,4.0,94,0.02,,SKC,0.12,VWS V13.00,2013-01-09 21:03:00,
2013-01-09 15:30:00,55.7,54.6,30.32,East,90,4.0,6.0,96,0.03,,SKC,0.14,VWS V13.00,2013-01-09 21:30:00,
2013-01-09 16:00:00,55.6,54.5,30.31,East,90,5.0,8.0,96,0.03,,SKC,0.14,VWS V13.00,2013-01-09 22:00:00,
2013-01-09 16:16:00,55.6,54.5,30.31,East,90,5.0,8.0,96,0.03,,SKC,0.14,VWS V13.00,2013-01-09 22:16:00,
2013-01-09 16:21:00,55.6,54.5,30.31,East,94,4.0,9.0,96,0.03,,SKC,0.15,VWS V13.00,2013-01-09 22:21:00,
2013-01-09 16:26:00,55.6,54.5,30.31,East,93,6.0,9.0,96,0.03,,SKC,0.15,VWS V13.00,2013-01-09 22:26:00,
2013-01-09 16:31:00,55.7,54.3,30.31,East,92,4.0,9.0,95,0.03,,SKC,0.15,VWS V13.00,2013-01-09 22:31:00,
2013-01-09 16:36:00,55.7,54.3,30.31,East,90,3.0,7.0,95,0.01,,SKC,0.15,VWS V13.00,2013-01-09 22:36:00,
2013-01-09 16:41:00,55.7,54.3,30.31,East,96,5.0,8.0,95,0.01,,SKC,0.15,VWS V13.00,2013-01-09 22:41:00,
2013-01-09 16:46:00,55.7,54.3,30.31,East,86,4.0,8.0,95,0.01,,SKC,0.15,VWS V13.00,2013-01-09 22:46:00,
2013-01-09 16:51:00,55.7,54.3,30.31,East,99,4.0,8.0,95,0.01,,SKC,0.15,VWS V13.00,2013-01-09 22:51:00,
2013-01-09 16:56:00,55.7,54.3,30.31,ESE,105,5.0,8.0,95,0.01,,SKC,0.15,VWS V13.00,2013-01-09 22:56:00,
2013-01-09 17:01:00,55.8,54.4,30.31,ESE,113,3.0,8.0,95,0.01,,SKC,0.15,VWS V13.00,2013-01-09 23:01:00,
2013-01-09 17:06:00,55.8,54.4,30.31,East,97,1.0,5.0,95,0.01,,SKC,0.15,VWS V13.00,2013-01-09 23:06:00,
2013-01-09 17:11:00,55.9,54.5,30.32,East,98,1.0,7.0,95,0.01,,SKC,0.15,VWS V13.00,2013-01-09 23:11:00,
2013-01-09 17:16:00,56.0,54.3,30.31,ESE,115,6.0,7.0,94,0.01,,SKC,0.15,VWS V13.00,2013-01-09 23:16:00,
2013-01-09 17:21:00,56.0,54.3,30.31,East,95,2.0,7.0,94,0.01,,SKC,0.15,VWS V13.00,2013-01-09 23:21:00,
2013-01-09 17:26:00,56.0,54.3,30.32,East,97,0.0,7.0,94,0.01,,SKC,0.15,VWS V13.00,2013-01-09 23:26:00,
2013-01-09 17:31:00,56.1,54.4,30.32,SE,142,1.0,7.0,94,0.01,,SKC,0.15,VWS V13.00,2013-01-09 23:31:00,
2013-01-09 17:36:00,56.2,54.5,30.32,SSE,153,0.0,4.0,94,0.00,,SKC,0.15,VWS V13.00,2013-01-09 23:36:00,
2013-01-09 17:41:00,56.2,54.5,30.32,SSE,153,0.0,4.0,94,0.00,,SKC,0.15,VWS V13.00,2013-01-09 23:41:00,
2013-01-09 17:46:00,56.2,54.5,30.32,ESE,122,2.0,4.0,94,0.00,,SKC,0.15,VWS V13.00,2013-01-09 23:46:00,
2013-01-09 17:51:00,56.3,54.6,30.32,East,90,5.0,5.0,94,0.00,,SKC,0.15,VWS V13.00,2013-01-09 23:51:00,
2013-01-09 17:56:00,56.4,54.7,30.32,ENE,76,4.0,6.0,94,0.00,,SKC,0.15,VWS V13.00,2013-01-09 23:56:00,
2013-01-09 18:01:00,56.4,54.7,30.33,East,98,2.0,6.0,94,0.00,,SKC,0.15,VWS V13.00,2013-01-10 00:01:00,
2013-01-09 18:06:00,56.4,54.4,30.33,East,91,1.0,4.0,93,0.00,,SKC,0.15,VWS V13.00,2013-01-10 00:06:00,
2013-01-09 18:11:00,56.4,54.4,30.33,ENE,67,4.0,4.0,93,0.00,,SKC,0.15,VWS V13.00,2013-01-10 00:11:00,
2013-01-09 18:16:00,56.5,54.5,30.33,ENE,69,1.0,5.0,93,0.00,,SKC,0.15,VWS V13.00,2013-01-10 00:16:00,
2013-01-09 18:21:00,56.5,54.5,30.33,ENE,57,2.0,6.0,93,0.00,,SKC,0.15,VWS V13.00,2013-01-10 00:21:00,
2013-01-09 18:26:00,56.3,54.6,30.33,ENE,63,2.0,6.0,94,0.00,,SKC,0.15,VWS V13.00,2013-01-10 00:26:00,
2013-01-09 18:31:00,56.0,54.3,30.33,ENE,76,2.0,6.0,94,0.00,,SKC,0.15,VWS V13.00,2013-01-10 00:31:00,
2013-01-09 18:36:00,56.0,54.3,30.33,ESE,103,4.0,5.0,94,0.00,,SKC,0.15,VWS V13.00,2013-01-10 00:36:00,
2013-01-09 18:41:00,56.2,54.5,30.33,East,97,4.0,6.0,94,0.00,,SKC,0.15,VWS V13.00,2013-01-10 00:41:00,
2013-01-09 18:46:00,56.5,54.5,30.33,East,101,5.0,8.0,93,0.00,,SKC,0.15,VWS V13.00,2013-01-10 00:46:00,
2013-01-09 18:51:00,56.9,54.6,30.34,SE,138,6.0,8.0,92,0.00,,SKC,0.15,VWS V13.00,2013-01-10 00:51:00,
2013-01-09 18:56:00,57.2,54.9,30.34,ESE,117,6.0,8.0,92,0.00,,SKC,0.15,VWS V13.00,2013-01-10 00:56:00,
2013-01-09 19:01:00,57.3,55.0,30.34,ESE,107,5.0,9.0,92,0.00,,SKC,0.15,VWS V13.00,2013-01-10 01:01:00,
2013-01-09 19:06:00,57.3,54.7,30.34,East,92,5.0,7.0,91,0.00,,SKC,0.15,VWS V13.00,2013-01-10 01:06:00,
2013-01-09 19:11:00,57.3,54.7,30.34,East,91,3.0,7.0,91,0.00,,SKC,0.15,VWS V13.00,2013-01-10 01:11:00,
2013-01-09 19:16:00,57.4,54.8,30.34,East,91,5.0,9.0,91,0.00,,SKC,0.15,VWS V13.00,2013-01-10 01:16:00,
2013-01-09 19:21:00,57.4,54.8,30.34,East,90,7.0,9.0,91,0.00,,SKC,0.15,VWS V13.00,2013-01-10 01:21:00,
2013-01-09 19:26:00,57.4,54.8,30.33,East,96,6.0,9.0,91,0.00,,SKC,0.15,VWS V13.00,2013-01-10 01:26:00,
2013-01-09 19:31:00,57.5,54.9,30.33,ESE,112,4.0,9.0,91,0.00,,SKC,0.15,VWS V13.00,2013-01-10 01:31:00,
2013-01-09 19:36:00,57.5,54.6,30.33,ESE,117,8.0,9.0,90,0.00,,SKC,0.15,VWS V13.00,2013-01-10 01:36:00,
2013-01-09 19:41:00,57.5,54.6,30.33,ENE,78,6.0,11.0,90,0.00,,SKC,0.15,VWS V13.00,2013-01-10 01:41:00,
2013-01-09 19:46:00,57.6,54.7,30.33,East,97,7.0,11.0,90,0.00,,SKC,0.15,VWS V13.00,2013-01-10 01:46:00,
2013-01-09 19:51:00,57.5,54.6,30.33,East,99,4.0,11.0,90,0.00,,SKC,0.15,VWS V13.00,2013-01-10 01:51:00,
2013-01-09 19:56:00,57.5,54.6,30.33,ESE,117,5.0,11.0,90,0.00,,SKC,0.15,VWS V13.00,2013-01-10 01:56:00,
2013-01-09 20:01:00,57.6,54.7,30.33,East,88,6.0,11.0,90,0.00,,SKC,0.15,VWS V13.00,2013-01-10 02:01:00,
2013-01-09 20:06:00,57.6,54.7,30.34,ESE,104,5.0,7.0,90,0.00,,SKC,0.15,VWS V13.00,2013-01-10 02:06:00,
2013-01-09 20:11:00,57.7,54.8,30.34,East,97,4.0,7.0,90,0.00,,SKC,0.15,VWS V13.00,2013-01-10 02:11:00,
2013-01-09 20:16:00,57.6,54.7,30.34,ESE,109,5.0,7.0,90,0.00,,SKC,0.15,VWS V13.00,2013-01-10 02:16:00,
2013-01-09 20:21:00,57.7,54.8,30.34,East,82,4.0,7.0,90,0.00,,SKC,0.15,VWS V13.00,2013-01-10 02:21:00,
2013-01-09 20:26:00,57.7,54.5,30.34,ESE,121,5.0,7.0,89,0.00,,SKC,0.15,VWS V13.00,2013-01-10 02:26:00,
2013-01-09 20:31:00,57.7,54.5,30.34,East,96,4.0,7.0,89,0.00,,SKC,0.15,VWS V13.00,2013-01-10 02:31:00,
2013-01-09 20:36:00,57.7,54.5,30.34,East,100,2.0,5.0,89,0.00,,SKC,0.15,VWS V13.00,2013-01-10 02:36:00,
2013-01-09 20:41:00,57.7,54.5,30.34,ESE,102,4.0,7.0,89,0.00,,SKC,0.15,VWS V13.00,2013-01-10 02:41:00,
2013-01-09 20:46:00,57.8,54.6,30.34,East,96,5.0,7.0,89,0.00,,SKC,0.15,VWS V13.00,2013-01-10 02:46:00,
2013-01-09 20:51:00,58.0,54.8,30.34,ESE,111,4.0,7.0,89,0.00,,SKC,0.15,VWS V13.00,2013-01-10 02:51:00,
2013-01-09 20:56:00,58.1,54.9,30.34,SE,132,1.0,8.0,89,0.00,,SKC,0.15,VWS V13.00,2013-01-10 02:56:00,
2013-01-09 21:01:00,58.1,54.9,30.34,ESE,118,1.0,8.0,89,0.00,,SKC,0.15,VWS V13.00,2013-01-10 03:01:00,
2013-01-09 21:06:00,58.2,55.0,30.34,ESE,109,4.0,8.0,89,0.00,,SKC,0.15,VWS V13.00,2013-01-10 03:06:00,
2013-01-09 21:11:00,58.2,55.0,30.34,SE,138,9.0,10.0,89,0.00,,SKC,0.15,VWS V13.00,2013-01-10 03:11:00,
2013-01-09 21:16:00,58.4,55.2,30.33,East,101,6.0,10.0,89,0.00,,SKC,0.15,VWS V13.00,2013-01-10 03:16:00,
2013-01-09 21:21:00,58.6,55.4,30.34,SE,138,4.0,10.0,89,0.00,,SKC,0.15,VWS V13.00,2013-01-10 03:21:00,
2013-01-09 21:26:00,58.8,55.6,30.34,ENE,75,7.0,10.0,89,0.00,,SKC,0.15,VWS V13.00,2013-01-10 03:26:00,
2013-01-09 21:31:00,58.9,55.4,30.34,SE,133,9.0,11.0,88,0.00,,SKC,0.15,VWS V13.00,2013-01-10 03:31:00,
2013-01-09 21:36:00,59.1,55.2,30.34,SE,128,4.0,8.0,87,0.00,,SKC,0.15,VWS V13.00,2013-01-10 03:36:00,
2013-01-09 21:41:00,59.2,55.3,30.34,ESE,120,5.0,8.0,87,0.00,,SKC,0.15,VWS V13.00,2013-01-10 03:41:00,
2013-01-09 21:46:00,59.1,55.2,30.34,East,92,6.0,9.0,87,0.00,,SKC,0.15,VWS V13.00,2013-01-10 03:46:00,
2013-01-09 21:51:00,59.2,55.3,30.34,East,94,6.0,9.0,87,0.00,,SKC,0.15,VWS V13.00,2013-01-10 03:51:00,
2013-01-09 21:56:00,59.2,55.3,30.33,East,93,5.0,9.0,87,0.00,,SKC,0.15,VWS V13.00,2013-01-10 03:56:00,
2013-01-09 22:01:00,59.1,55.2,30.33,ESE,102,8.0,9.0,87,0.00,,SKC,0.15,VWS V13.00,2013-01-10 04:01:00,
2013-01-09 22:06:00,59.0,55.5,30.33,ESE,121,8.0,9.0,88,0.00,,SKC,0.15,VWS V13.00,2013-01-10 04:06:00,
2013-01-09 22:11:00,59.1,55.2,30.33,East,81,6.0,10.0,87,0.00,,SKC,0.15,VWS V13.00,2013-01-10 04:11:00,
2013-01-09 22:16:00,59.1,55.2,30.33,ESE,114,3.0,10.0,87,0.00,,SKC,0.15,VWS V13.00,2013-01-10 04:16:00,
2013-01-09 22:21:00,59.1,55.2,30.33,East,92,5.0,10.0,87,0.00,,SKC,0.15,VWS V13.00,2013-01-10 04:21:00,
2013-01-09 22:26:00,59.1,55.2,30.33,East,86,8.0,10.0,87,0.00,,SKC,0.15,VWS V13.00,2013-01-10 04:26:00,
2013-01-09 22:31:00,59.1,55.2,30.34,East,98,6.0,10.0,87,0.00,,SKC,0.15,VWS V13.00,2013-01-10 04:31:00,
2013-01-09 22:35:00,59.1,55.2,30.34,ESE,122,3.0,7.0,87,0.00,,SKC,0.15,VWS V13.00,2013-01-10 04:35:00,
2013-01-09 22:40:00,59.2,55.3,30.34,SE,125,5.0,8.0,87,0.00,,SKC,0.15,VWS V13.00,2013-01-10 04:40:00,
2013-01-09 22:45:00,59.1,55.2,30.34,ESE,115,8.0,9.0,87,0.00,,SKC,0.15,VWS V13.00,2013-01-10 04:45:00,
2013-01-09 22:50:00,59.2,55.0,30.34,East,99,6.0,9.0,86,0.00,,SKC,0.15,VWS V13.00,2013-01-10 04:50:00,
2013-01-09 22:55:00,59.2,55.0,30.33,East,92,4.0,9.0,86,0.00,,SKC,0.15,VWS V13.00,2013-01-10 04:55:00,
2013-01-09 23:00:00,59.2,55.0,30.33,East,96,5.0,10.0,86,0.00,,SKC,0.15,VWS V13.00,2013-01-10 05:00:00,
2013-01-09 23:01:00,59.2,55.0,30.33,East,94,4.0,10.0,86,0.00,,SKC,0.15,VWS V13.00,2013-01-10 05:01:00,
2013-01-09 23:06:00,59.2,55.0,30.33,ENE,78,6.0,8.0,86,0.00,,SKC,0.15,VWS V13.00,2013-01-10 05:06:00,
2013-01-09 23:11:00,59.2,54.7,30.33,East,92,2.0,9.0,85,0.00,,SKC,0.15,VWS V13.00,2013-01-10 05:11:00,
2013-01-09 23:16:00,59.3,54.8,30.34,ESE,102,7.0,9.0,85,0.00,,SKC,0.15,VWS V13.00,2013-01-10 05:16:00,
2013-01-09 23:21:00,59.3,54.8,30.34,East,90,5.0,9.0,85,0.00,,SKC,0.15,VWS V13.00,2013-01-10 05:21:00,
2013-01-09 23:25:00,59.3,54.5,30.34,ESE,107,5.0,11.0,84,0.00,,SKC,0.15,VWS V13.00,2013-01-10 05:25:00,
2013-01-09 23:30:00,59.2,54.7,30.34,East,97,8.0,15.0,85,0.00,,SKC,0.15,VWS V13.00,2013-01-10 05:30:00,
2013-01-09 23:35:00,58.8,54.6,30.34,East,96,10.0,11.0,86,0.00,,SKC,0.15,VWS V13.00,2013-01-10 05:35:00,
2013-01-09 23:40:00,58.2,54.7,30.34,East,100,4.0,11.0,88,0.00,,SKC,0.15,VWS V13.00,2013-01-10 05:40:00,
2013-01-09 23:45:00,57.8,54.6,30.34,SE,125,6.0,11.0,89,0.00,,SKC,0.15,VWS V13.00,2013-01-10 05:45:00,
2013-01-09 23:50:00,57.6,54.4,30.34,ESE,114,8.0,11.0,89,0.00,,SKC,0.15,VWS V13.00,2013-01-10 05:50:00,
2013-01-09 23:55:00,57.5,54.3,30.34,East,101,5.0,11.0,89,0.00,,SKC,0.15,VWS V13.00,2013-01-10 05:55:00,